Weather in Saint Augustine

United States     29°52′02″N   81°17′09″W
temp.,
°C
wind,
m/s
gust,
m/s
humid.,
%
clouds,
%
prec.,
mm/h
press.,
hPa
HPBL,
m
16 may, sun
sun1623:00+21ene58535 0.0 1023821
02:00+20ene46550 0.0 1022800
05:00+20ene45586 0.0 1022820
08:00+22ene46556 0.0 10241623
11:00+23ene565197 0.0 10241706
14:00+24ene5649100 0.0 10241644
17:00+23ene5653100 0.0 10221676
20:00+22ne576298 0.0 1022967
17 may, mon
mon1723:00+21ene476761 0.0 1022688
02:00+21e35713 0.0 1022509
05:00+20e467010 0.0 1021632
08:00+22e466213 0.0 10221180
11:00+24e46565 0.0 10231328
14:00+24ene455813 0.0 10221101
17:00+24ese676582 0.3 10211190
20:00+23ese47685 0.4 1022644
18 may, tue
tue1823:00+22e487217 0.0 1022369
02:00+22e59755 0.1 1021736
05:00+22e597185 0.0 1021754
08:00+23e5867100 0.0 10231035
11:00+25e575998 0.0 10241152
14:00+25ene6761100 0.0 10231309
17:00+24e676263 0.0 10221320
20:00+23e587194 0.0 1022776
19 may, wed
wed1923:00+22e69715 0.0 1023824
02:00+22e697144 0.0 1022792
05:00+23e697076 0.1 1021823
08:00+23e696978 0.1 1022836
11:00+24ene686729 0.1 10241042
14:00+25e686915 0.6 10231101
17:00+24e687020 0.8 10221051
20:00+23e611783 1.6 1022706
20 may, thu
thu2023:00+23ese6107117 0.1 1023770
02:00+23e7107075 0.2 1023842
05:00+23e7106598 0.1 10231147
08:00+23e6963100 0.1 10241378
11:00+24e795729 0.1 10251578
14:00+25e795866 0.1 10251548
17:00+24ene796045 0.1 10241448
20:00+23ene696938 0.1 10241026